Vorticity
nan nan nan nan nan nan nan nan nan nan nan nan nan nan nan nan nan nan nan nan nan nan nan nan nan nan nan nan nan nan nan nan nan nan nan nan nan nan nan nan nan nan nan
nan 4 5 10 11 5 7 7 8 8 7 5 1 4 6 6 6 6 5 6 6 7 6 5 5 6 5 5 3 3 5 6 6 6 6 2 2 4 4 6 6 6 nan
nan 7 7 5 7 7 8 7 7 5 5 5 6 6 5 5 7 6 6 5 6 6 6 6 5 4 5 3 4 4 3 4 6 7 3 0 1 3 4 5 5 5 nan
nan 8 5 6 6 7 6 9 7 6 6 5 6 4 7 6 6 5 6 5 5 6 6 5 5 4 3 3 5 4 4 4 6 6 4 6 3 3 5 5 7 6 nan
nan 4 8 6 6 7 9 6 4 5 5 4 6 5 6 6 6 5 5 5 5 3 4 5 4 5 3 4 5 5 4 4 6 6 6 5 7 6 6 5 6 5 nan
nan 6 9 3 9 5 6 4 7 6 5 7 6 6 5 6 6 5 5 6 4 3 3 5 5 4 4 6 6 5 4 4 6 5 5 6 7 8 5 6 7 6 nan
nan 7 0 8 13 4 3 7 6 6 6 7 5 7 6 6 5 5 5 6 6 8 6 5 5 4 5 6 6 4 3 5 6 6 5 6 8 8 5 5 5 5 nan
nan 7 4 6 3 12 7 3 3 6 7 6 6 5 7 5 5 6 6 6 6 7 7 5 5 4 6 5 4 4 6 6 5 4 6 6 9 6 6 5 5 5 nan
nan 7 7 6 5 9 10 10 6 5 5 6 8 6 6 5 5 5 5 7 8 7 5 5 5 5 6 5 3 4 6 6 6 5 5 6 9 6 6 5 5 5 nan
nan 8 7 8 7 8 10 11 14 8 5 6 6 7 7 5 3 4 6 9 10 7 5 5 5 6 5 5 4 5 4 6 5 4 4 11 8 6 5 5 5 5 nan
nan 11 9 9 10 8 5 6 8 7 6 3 2 5 3 5 6 4 5 11 9 6 5 6 5 5 4 3 3 5 2 5 4 4 9 10 6 6 5 5 5 5 nan
nan 12 11 11 11 6 6 5 4 5 5 3 4 3 4 7 7 6 4 6 7 7 4 3 4 3 2 0 4 3 6 7 5 6 10 8 6 5 5 5 5 5 nan
nan 17 11 9 11 9 7 5 5 7 10 8 6 6 6 5 6 6 4 5 7 5 5 5 2 3 5 6 6 6 8 5 5 7 9 7 6 5 4 4 5 4 nan
nan 10 13 11 5 6 5 7 6 5 6 8 10 8 3 6 7 6 8 7 6 7 9 4 5 8 7 7 7 7 5 6 6 7 8 6 6 5 5 4 3 4 nan
nan 7 9 6 5 6 7 5 6 8 7 10 9 5 7 7 7 7 8 6 7 9 7 8 8 6 6 6 6 6 6 6 6 5 8 8 5 5 6 5 4 4 nan
nan 9 9 7 10 11 9 8 5 9 9 7 9 9 7 5 7 8 7 6 6 8 9 8 8 7 6 6 7 6 6 7 7 6 7 8 7 7 6 6 6 5 nan
nan 11 8 8 9 9 8 5 8 12 10 7 9 8 6 7 9 7 6 5 5 9 8 6 7 7 7 7 7 6 6 7 7 6 6 8 8 6 7 8 8 7 nan
nan 10 7 7 9 7 5 6 9 10 10 7 7 9 9 8 7 5 6 8 6 7 7 7 6 7 7 7 6 7 8 7 7 7 6 7 7 8 9 8 9 11 nan
nan 8 9 10 8 5 4 4 9 9 8 9 6 8 10 8 6 6 6 8 8 6 8 6 6 7 7 8 7 7 7 8 7 7 7 7 7 7 8 9 8 10 nan
nan 8 9 11 9 3 4 6 5 8 7 9 9 10 8 7 7 7 8 8 7 6 7 8 7 5 8 8 8 7 6 6 7 8 8 7 7 7 7 7 9 11 nan
nan 9 7 7 9 6 6 6 6 9 7 8 10 12 8 7 7 6 7 7 8 6 8 6 7 7 6 8 7 7 8 10 8 7 8 8 8 8 7 6 7 9 nan
nan 8 8 7 7 7 7 8 9 8 10 10 10 12 10 7 8 8 7 7 6 6 10 7 4 6 9 7 3 7 11 10 11 10 7 8 8 8 9 8 6 5 nan
nan 6 7 7 5 8 8 5 6 7 11 11 10 8 10 10 8 8 7 8 7 9 8 9 8 4 7 7 6 5 8 8 9 12 11 10 10 6 9 10 9 8 nan
nan 8 8 8 4 7 8 8 7 4 4 7 10 9 8 9 8 8 8 7 5 9 7 8 8 7 7 8 7 8 4 10 8 7 9 10 13 9 8 8 8 10 nan
nan 8 9 10 6 6 8 5 4 7 5 7 13 11 7 8 8 6 5 5 7 7 9 10 8 8 5 7 7 9 9 8 9 8 7 6 11 13 8 10 9 11 nan
nan nan nan nan nan nan nan nan nan nan nan nan nan nan nan nan nan nan nan nan nan nan nan nan nan nan nan nan nan nan nan nan nan nan nan nan nan nan nan nan nan nan nan
CAPE
1097 1348 1239 1390 1586 1697 1763 1551 1434 1489 1484 1361 1211 1155 1260 1303 1224 1159 1033 899 805 763 327 226 208 47 21 30 71 50 189 256 222 202 213 97 46 59 38 202 141 87 305
1167 1263 1027 1465 1611 1623 1782 1733 1604 1576 1565 1438 1330 1281 1239 1206 1075 906 811 731 664 505 38 30 33 19 21 29 37 19 3 27 68 141 186 55 45 52 40 104 143 57 93
1323 1237 1232 1378 1576 1670 1754 1825 1783 1763 1709 1563 1459 1358 1193 993 818 716 587 490 460 340 21 25 33 42 31 24 26 16 0 3 14 25 38 20 19 18 11 15 31 19 25
1467 1370 1404 1462 1565 1664 1703 1764 1800 1934 1797 1594 1468 1331 1087 870 827 784 641 473 452 390 20 17 18 26 40 19 14 0 0 0 0 2 3 9 3 13 6 4 10 15 21
1606 1605 1617 1407 1499 1660 1697 1816 1857 1736 1574 1430 1329 1284 948 1003 974 891 656 549 588 574 195 32 11 9 10 17 9 1 0 0 0 2 3 8 12 19 25 24 22 15 23
1220 1363 1123 1179 1164 1724 1808 1890 1760 1492 1285 1238 1144 1068 986 1103 1049 842 605 642 656 621 477 25 4 5 10 2 0 0 0 0 0 0 4 15 8 22 23 18 23 13 21
880 1186 976 598 1049 1378 1866 1903 1694 1345 1183 1149 997 784 942 1054 921 707 593 548 542 531 516 63 0 0 1 0 0 0 0 0 0 0 2 6 16 24 26 21 20 19 18
880 1189 899 455 896 1054 1289 1228 1402 1235 1179 1005 846 685 870 773 605 517 397 282 288 474 422 63 0 0 0 0 0 0 0 0 0 0 3 10 32 19 25 21 14 14 14
528 579 1229 838 996 933 860 631 891 1021 1061 870 696 540 486 309 339 383 186 190 271 434 208 2 0 0 0 0 0 0 0 0 0 0 1 10 14 16 15 15 13 11 9
412 650 1216 703 986 938 560 182 415 574 727 660 496 341 235 221 298 234 126 261 411 377 140 0 0 0 0 0 0 0 0 0 0 1 4 7 17 14 13 13 11 8 7
646 698 955 352 475 554 185 116 172 72 325 443 408 279 181 401 165 14 17 158 352 148 25 0 0 7 0 0 0 0 0 0 0 0 2 21 18 12 11 12 8 8 7
149 425 210 71 17 6 0 0 0 56 86 168 337 297 223 103 0 0 5 44 121 107 73 13 11 5 0 0 0 0 0 0 0 1 2 26 22 18 16 12 10 11 9
102 136 128 3 5 6 0 0 0 19 96 118 214 204 159 11 0 3 0 3 50 65 37 8 1 0 0 0 0 0 0 0 0 2 6 20 22 16 18 14 11 10 5
75 19 6 5 1 1 5 0 0 0 15 87 140 256 164 1 1 0 0 3 8 0 35 13 0 0 0 0 0 0 0 0 0 0 5 16 25 15 15 15 11 10 7
67 27 20 23 7 4 5 5 1 3 35 46 142 233 71 9 5 11 2 1 0 0 2 0 0 0 0 0 0 0 0 0 0 0 5 8 17 27 17 20 20 17 14
4 4 2 3 2 5 4 12 39 63 51 63 153 231 114 43 19 12 7 0 0 0 0 0 0 0 0 0 0 0 0 0 0 0 0 3 2 15 22 19 26 28 25
3 4 2 3 0 0 10 20 25 17 27 35 167 208 128 70 79 48 14 0 0 0 0 0 0 0 0 0 0 0 0 0 0 0 0 0 0 0 0 25 20 31 33
5 4 6 6 1 0 5 0 13 25 51 25 51 130 121 100 65 33 6 3 6 6 4 0 0 0 0 0 0 0 0 0 0 0 0 0 0 0 0 0 0 51 39
4 4 5 6 9 0 1 0 2 18 69 24 1 45 90 82 69 58 19 26 19 29 31 1 0 0 0 0 0 0 0 0 0 0 0 0 0 0 0 0 0 0 93
5 3 3 11 7 11 0 1 3 1 64 67 46 21 75 56 51 71 63 57 47 24 52 40 8 0 0 0 0 0 0 0 0 0 0 0 0 0 0 0 0 0 0
4 2 3 1 2 9 1 1 0 0 65 106 75 26 71 51 63 121 128 94 90 115 86 41 40 1 0 0 0 0 0 0 0 0 0 0 0 0 0 0 0 0 0
6 4 3 1 1 2 6 0 0 10 20 56 72 40 71 60 86 124 155 178 134 148 114 74 58 50 23 0 0 0 0 0 0 0 0 0 0 0 0 0 0 0 0
1 4 2 1 0 0 0 0 0 0 0 26 34 60 86 107 148 182 189 200 206 256 231 175 82 45 109 0 0 17 0 0 0 0 0 0 0 0 0 0 0 0 0
11 11 6 3 2 0 0 0 0 0 0 6 15 57 54 99 138 118 110 121 175 225 180 141 46 92 100 58 0 0 0 0 0 2 0 0 0 0 0 0 0 0 0
3 10 4 1 4 0 0 0 0 0 0 0 0 35 41 36 53 61 55 95 130 184 208 215 112 61 68 80 9 0 0 0 0 0 0 0 0 0 0 0 0 0 0
4 10 6 1 5 0 0 0 0 0 0 0 0 4 18 47 42 64 50 76 114 120 140 190 187 131 75 32 0 0 0 0 0 0 0 0 0 0 0 0 0 0 0